Wind_Speed
32 39 43 41 34 36 45 44 43 44 40 40 42 42 42 43 43 44 42 39 36 33 30 31 30 24 22 22 23 23 23 25 26 28 30 30 26 23 22 20 16 13 13 9 6 13 14 10 10 1 5 2 3 1 2 6 6 2 3 2 3 3 3 4 5 6 7 6 9 14 17 13 6 9 15 13 16 18 14 12 11 9 8 8 8 12 23 27
29 36 41 41 36 34 44 46 43 45 41 40 42 42 43 43 43 44 44 42 37 34 32 32 32 28 23 21 21 19 18 21 23 27 31 30 26 23 22 21 19 15 15 12 5 12 15 8 7 1 4 0 4 2 1 3 6 4 3 2 4 4 3 3 2 6 8 8 14 16 15 14 11 14 17 9 11 17 13 11 14 14 13 12 14 18 23 26
28 34 40 41 37 33 42 48 44 45 44 40 41 42 43 43 42 42 41 42 40 37 34 32 31 29 26 24 22 19 16 17 20 28 32 29 27 24 23 21 20 18 17 15 8 11 14 7 5 2 5 2 2 3 3 2 4 6 3 1 5 4 2 5 5 3 9 15 18 15 14 13 13 16 15 10 11 12 10 12 15 18 21 20 21 23 23 25
28 32 41 43 39 35 38 46 45 44 44 41 40 41 42 43 42 41 38 39 41 38 34 31 29 28 27 26 23 19 16 12 18 30 32 29 28 26 25 22 20 20 19 18 13 11 10 5 2 1 5 4 1 4 4 5 4 5 5 4 5 2 2 2 4 3 10 22 22 18 13 10 15 16 15 17 12 5 12 19 18 20 25 26 26 25 24 25
31 31 37 43 42 39 37 42 45 42 43 42 41 41 43 43 43 42 38 37 41 40 35 31 28 27 26 24 21 18 13 4 10 24 30 30 31 29 27 23 21 22 21 20 18 14 11 7 3 2 4 4 3 4 3 9 8 3 5 10 6 2 1 2 2 2 9 20 21 18 11 10 16 14 17 20 10 7 17 21 19 21 23 24 26 25 24 25
34 32 35 42 43 40 37 42 45 42 43 43 41 42 42 43 43 42 40 37 40 40 36 33 29 27 25 22 19 17 15 5 1 8 19 28 32 31 29 24 22 23 22 21 21 18 14 9 4 3 4 4 5 3 6 10 11 5 4 10 6 3 3 2 2 2 8 18 17 15 12 13 15 9 16 19 10 10 17 19 18 19 20 22 23 24 24 25
36 33 34 41 43 40 36 41 47 43 42 43 40 41 41 41 42 41 41 38 40 41 38 35 32 27 24 22 20 18 21 15 6 6 4 18 30 31 30 27 24 24 24 23 22 22 19 12 7 2 3 3 7 6 8 11 11 9 4 6 6 5 4 5 4 4 9 17 14 15 15 16 13 8 13 14 9 9 15 19 20 19 20 23 24 23 23 23
37 36 35 40 45 46 40 37 45 46 43 42 39 39 40 41 41 41 41 39 40 41 39 36 32 28 25 23 23 19 23 26 19 8 6 9 29 31 31 29 25 25 25 23 20 22 23 17 12 4 2 4 8 8 7 10 6 8 5 5 4 5 4 6 7 4 8 13 12 14 14 14 13 8 11 12 9 10 14 17 21 24 24 24 24 24 23 22
38 39 38 39 45 51 47 38 41 48 44 43 40 38 40 40 41 40 39 40 40 40 40 37 31 29 25 25 25 17 23 29 24 18 9 8 27 30 32 30 25 26 25 24 21 20 24 23 18 8 2 8 12 10 6 5 2 5 9 9 5 4 4 6 8 6 6 9 11 11 8 9 12 7 8 14 13 12 12 13 21 27 27 26 24 23 23 22
40 41 42 41 44 50 52 44 41 46 45 43 42 39 39 39 39 39 39 40 39 39 39 37 33 30 27 27 23 12 21 26 21 22 13 10 26 29 31 31 26 28 27 26 24 23 25 26 24 12 7 11 12 11 6 0 3 7 7 9 6 5 4 4 7 7 6 6 10 9 5 6 11 6 5 14 17 14 13 13 21 28 28 27 24 23 22 21
44 43 44 44 44 48 54 51 43 47 47 44 43 41 40 38 38 38 38 38 37 37 37 38 36 32 31 29 23 13 18 19 18 22 15 12 26 29 31 30 27 28 29 29 28 26 26 29 27 12 7 7 7 8 7 5 6 9 4 3 4 4 4 4 5 8 6 4 8 9 5 3 6 5 7 15 20 17 15 16 20 25 26 26 25 23 23 21
48 45 44 45 46 47 53 52 44 47 49 45 44 42 40 38 38 38 38 36 35 35 35 36 35 35 32 29 28 24 16 11 13 20 18 14 23 28 28 27 26 28 30 31 31 28 28 31 25 14 9 5 5 4 6 6 5 8 7 2 0 1 1 5 6 8 6 4 9 9 4 2 3 9 13 16 21 21 18 19 20 22 23 24 24 23 23 21
51 48 47 48 47 47 51 50 45 48 49 46 45 42 40 39 38 37 37 36 35 34 34 32 33 37 33 24 30 30 15 9 13 19 20 17 23 27 24 23 24 24 27 31 32 31 31 30 21 17 14 8 6 4 4 4 1 6 7 2 1 2 3 8 7 8 5 5 11 9 1 5 7 15 19 16 22 25 22 22 23 22 23 23 23 23 23 22
53 51 50 50 49 48 50 49 46 48 50 46 44 42 40 38 36 36 35 36 34 31 29 30 34 37 31 20 25 27 15 11 15 22 21 19 26 28 23 23 22 20 23 28 31 32 30 24 16 16 16 13 10 7 4 2 2 3 4 2 2 1 4 6 7 10 5 5 10 7 2 6 7 13 17 19 24 27 25 25 26 24 24 24 23 23 23 23
55 53 53 51 51 50 51 52 48 48 50 46 44 42 40 38 36 35 36 35 33 30 29 33 38 34 25 16 18 23 17 12 16 24 21 22 30 30 27 27 24 21 20 25 31 31 26 18 15 13 14 13 10 6 2 1 1 1 3 3 2 4 4 5 5 11 6 4 8 5 1 6 7 8 12 23 26 27 26 25 26 26 25 25 24 23 23 24
55 54 55 52 52 51 53 56 50 49 50 46 45 42 40 38 35 34 35 34 31 31 34 37 39 32 19 11 14 22 21 14 17 23 21 24 30 31 31 30 27 25 23 26 31 29 23 16 12 12 13 9 5 3 1 2 2 2 3 3 3 5 3 3 3 9 5 4 6 4 2 4 5 3 11 24 27 26 24 23 25 25 25 26 26 25 25 24
55 56 55 52 53 51 54 59 53 50 51 48 46 42 41 39 36 36 34 32 30 32 38 40 39 28 11 8 15 24 26 18 18 24 20 23 29 29 32 31 28 28 27 28 28 25 21 16 9 8 10 6 3 4 3 4 4 2 2 3 4 4 4 1 3 7 6 5 5 4 2 5 6 2 10 21 24 24 22 22 24 24 26 27 27 27 27 26
56 57 55 53 53 49 53 58 55 53 52 50 47 44 42 39 38 36 33 32 31 29 30 32 33 19 6 15 22 27 31 23 19 24 22 25 29 30 33 32 31 30 26 22 21 21 17 13 9 4 5 5 5 5 4 6 5 3 4 3 4 2 4 5 3 5 8 5 5 5 3 9 9 4 9 16 19 22 22 23 24 25 26 26 28 29 28 29
57 57 55 54 54 51 51 54 56 57 57 52 48 47 44 42 39 34 35 35 30 22 14 25 31 11 6 24 30 28 32 27 20 24 26 28 30 32 32 29 31 30 21 13 12 17 15 8 7 6 6 6 6 6 5 6 6 6 6 5 5 4 4 4 3 4 7 5 5 7 7 10 9 6 8 14 17 20 21 21 23 25 26 27 28 30 31 31
57 57 56 55 56 53 50 57 63 62 61 54 53 52 43 37 25 19 31 35 34 22 7 32 40 8 4 28 32 28 30 26 22 25 27 29 33 34 30 25 25 22 13 8 7 14 15 7 6 9 7 6 6 5 6 7 3 4 4 5 7 6 4 3 3 4 1 4 5 8 7 8 8 6 9 16 16 15 18 19 22 25 26 29 30 30 32 32
57 57 57 56 56 52 49 57 65 65 61 59 63 56 45 41 22 20 34 27 35 26 1 31 38 4 5 32 34 33 31 22 20 25 25 30 38 32 23 21 16 10 10 12 9 10 13 7 7 8 6 6 7 6 8 9 4 2 4 4 6 6 4 3 2 3 2 2 4 4 5 8 9 8 10 13 12 14 21 21 23 26 26 28 31 31 31 30
57 58 57 57 55 52 54 56 59 63 61 63 65 52 50 55 37 42 45 20 32 28 2 33 34 2 13 35 34 37 31 19 17 24 26 31 36 26 18 17 10 6 9 12 9 7 8 7 7 10 9 7 7 8 9 10 7 1 3 4 4 5 3 2 3 3 2 1 3 2 2 8 9 8 8 10 12 18 27 27 27 30 29 29 31 32 30 28
58 59 56 58 54 53 63 63 59 61 62 67 63 48 49 49 35 45 41 16 24 22 7 35 34 9 24 33 33 38 31 20 18 25 29 31 31 23 18 14 8 9 9 8 9 8 5 5 8 12 13 10 7 8 9 8 6 2 3 4 2 3 4 1 3 2 2 1 2 2 2 6 7 6 6 11 18 21 25 28 29 30 30 31 32 32 31 30
58 59 56 58 55 54 64 66 63 62 65 66 55 46 48 39 33 45 31 13 12 12 11 35 32 17 24 28 34 37 29 25 24 28 32 33 29 20 17 15 10 9 8 9 10 8 5 6 12 12 11 12 8 8 9 6 5 3 3 5 2 2 3 3 2 1 2 3 1 3 4 5 5 6 7 10 16 18 20 23 25 29 30 31 31 32 33 33
57 58 57 58 58 58 61 64 67 64 63 58 43 44 45 30 33 46 27 9 7 7 10 27 25 15 21 26 29 29 23 22 27 34 35 36 33 20 14 16 13 7 9 11 9 7 6 7 12 9 8 13 9 6 9 7 4 5 4 6 6 5 4 4 5 4 4 4 3 3 1 6 5 5 8 7 7 10 14 16 22 30 32 31 32 33 34 35
58 58 58 58 61 66 60 57 63 61 58 50 40 49 45 29 37 45 22 5 3 7 8 21 21 15 20 25 26 24 16 12 23 36 36 34 34 24 14 12 9 7 11 10 5 3 2 3 8 7 8 12 9 5 8 8 6 4 5 4 6 8 7 7 6 3 2 3 4 3 4 5 6 4 7 6 4 9 11 11 19 28 31 33 35 35 35 35
58 57 58 58 63 71 63 53 58 60 53 44 44 51 43 34 42 40 17 2 4 8 10 17 19 17 20 25 30 20 8 12 21 31 37 32 28 23 14 8 6 8 10 8 4 3 3 4 6 7 7 9 8 5 5 7 7 4 4 2 5 8 7 7 6 4 2 3 3 4 4 3 4 6 8 5 5 9 8 8 14 22 28 32 36 37 36 35
57 56 60 65 67 70 66 57 60 61 51 45 50 51 42 43 43 29 11 2 5 9 10 12 15 20 23 28 31 14 9 22 17 20 37 33 23 17 11 8 7 9 10 9 6 2 4 7 9 8 6 4 6 5 6 9 5 4 4 4 6 7 7 6 6 4 1 1 3 5 1 2 5 6 6 4 3 7 8 8 11 18 27 32 35 37 36 35
56 56 64 72 71 64 61 61 60 53 45 46 51 48 46 46 34 15 4 4 6 6 10 14 13 19 22 23 24 12 17 23 12 17 33 29 20 12 7 11 10 8 5 6 6 3 2 7 10 9 7 5 5 3 5 8 4 4 3 5 5 4 5 5 4 4 3 1 5 6 2 2 5 6 4 3 2 6 8 7 8 17 26 31 34 37 37 36
58 59 67 75 72 59 53 55 53 46 43 49 52 49 48 36 18 9 6 5 5 5 11 14 13 20 21 15 12 10 13 12 13 24 25 20 19 11 9 14 10 7 3 4 4 2 1 2 4 3 4 5 6 3 1 4 6 6 5 6 6 6 5 4 3 4 2 2 6 7 5 4 3 6 4 4 5 6 7 6 7 13 22 30 34 36 36 36
63 62 70 76 70 59 53 51 49 49 50 52 53 51 38 15 4 8 8 6 7 5 10 12 11 18 20 14 9 10 8 4 14 24 15 11 13 10 10 10 6 6 3 3 3 3 5 3 1 1 1 4 7 5 5 1 6 8 5 5 4 3 4 4 4 3 2 4 6 5 4 5 4 5 4 5 6 6 6 6 6 9 15 23 28 31 33 33
66 64 71 75 65 57 56 52 50 55 55 54 55 46 25 6 3 6 6 9 8 5 10 14 12 15 17 15 11 9 6 4 11 18 12 9 8 8 8 6 6 6 5 5 3 2 4 1 2 3 1 2 6 5 4 4 2 5 5 6 5 1 2 1 2 1 2 5 4 2 1 3 5 7 8 9 10 10 9 9 9 9 12 14 17 20 23 24
67 68 70 68 60 55 55 53 53 55 55 56 50 29 11 8 9 7 6 7 8 9 13 18 19 18 18 16 11 8 6 5 10 12 11 9 7 7 5 4 6 6 5 6 4 3 1 4 3 2 2 3 4 6 3 1 2 5 6 6 4 3 3 2 3 1 3 4 3 2 2 2 3 5 10 12 14 19 16 11 12 14 13 11 10 12 14 16
67 73 69 60 55 55 54 56 56 56 56 53 37 15 8 11 9 10 10 6 7 12 13 16 20 19 17 13 10 10 6 4 9 11 9 9 8 8 7 7 8 6 5 5 3 6 5 2 2 1 1 1 2 3 4 5 5 4 5 6 5 5 4 4 3 2 4 3 3 3 1 3 3 3 9 11 15 23 22 17 14 14 13 11 10 11 13 15
70 72 65 51 49 52 53 58 59 58 56 42 21 9 10 11 9 10 10 6 8 11 13 17 18 16 13 10 9 10 6 4 8 9 9 10 10 11 10 9 9 6 7 7 3 4 6 2 3 2 2 1 2 2 1 7 5 3 3 6 4 5 4 3 3 4 4 1 1 2 2 4 4 5 9 10 11 15 20 18 13 13 12 11 12 14 14 14
70 62 54 44 47 51 53 59 61 59 53 30 10 9 11 9 10 10 9 10 12 14 17 17 15 13 11 7 8 11 6 5 8 7 6 9 9 10 9 7 9 8 8 8 3 3 6 1 5 4 3 2 2 2 1 4 4 1 4 4 5 4 6 4 1 1 3 1 3 2 3 4 3 5 9 8 8 9 12 12 11 12 11 11 15 18 17 15
65 50 43 42 48 51 55 62 62 58 46 21 8 11 10 8 9 9 9 12 16 18 18 14 11 13 13 8 9 13 10 7 9 7 5 6 6 11 11 9 12 11 7 7 3 2 6 2 4 2 1 2 2 1 2 2 2 4 4 6 3 2 4 4 1 1 2 3 4 1 4 4 2 2 6 7 6 9 9 8 9 10 11 14 18 20 19 18
57 44 36 42 50 52 57 62 60 52 33 12 10 11 8 6 7 9 11 14 17 18 15 11 10 11 14 13 12 16 15 11 11 9 8 7 5 11 14 10 12 14 11 10 5 2 5 3 3 1 1 3 4 2 1 3 2 4 3 3 4 3 3 3 3 3 2 3 4 2 4 3 3 4 5 7 7 9 9 7 6 8 11 15 17 17 16 17
50 37 26 39 52 51 56 59 54 41 20 8 12 10 4 4 5 15 24 20 16 16 13 11 11 10 12 14 12 15 16 13 13 9 8 8 5 9 17 11 9 14 15 12 7 3 5 4 1 2 2 2 3 1 4 1 2 2 1 1 2 2 5 4 3 4 3 3 4 3 2 3 5 6 6 9 10 8 7 6 5 8 10 12 13 12 12 14
44 24 16 40 54 50 56 55 41 26 12 9 11 7 6 6 5 21 36 28 13 9 10 11 13 12 11 12 11 12 11 10 13 9 5 8 5 6 15 12 9 13 13 11 7 5 4 4 2 2 3 1 1 2 6 7 4 2 2 4 2 1 2 2 2 3 4 4 4 2 3 5 6 5 7 10 9 7 6 5 5 7 7 7 9 9 10 11
39 13 15 45 53 52 57 42 21 12 8 10 9 5 7 7 7 18 32 32 15 4 9 12 13 13 12 12 12 11 9 7 11 9 3 8 7 4 11 14 13 14 11 7 7 5 3 4 5 2 1 3 4 4 4 5 4 4 5 7 6 3 4 4 4 1 2 3 4 3 4 7 6 4 6 7 6 6 6 5 5 6 5 6 8 9 11 10
30 5 21 49 53 58 53 24 11 12 8 10 9 5 6 7 9 14 20 26 16 4 9 11 10 11 11 11 12 11 10 8 11 11 4 7 9 4 10 19 21 20 13 5 5 4 4 5 5 2 3 5 6 5 2 1 1 1 3 4 5 5 6 7 6 3 1 3 3 3 5 8 6 5 6 6 6 6 6 5 7 7 6 7 8 8 10 10
18 11 34 53 57 61 43 12 10 11 4 8 9 4 4 5 9 13 13 16 12 6 9 9 9 12 10 9 12 12 11 8 10 11 5 5 7 5 15 26 27 21 12 5 6 6 5 5 4 2 1 3 5 5 2 2 2 1 3 1 3 3 3 5 5 4 4 5 4 3 6 8 5 6 7 7 6 6 8 9 10 10 8 8 9 7 6 8
19 24 38 48 56 53 28 9 14 13 5 10 10 3 3 3 7 13 12 11 10 8 10 9 10 13 10 10 13 15 15 9 8 10 5 5 7 8 20 34 29 18 11 10 11 9 4 3 4 5 2 3 3 4 3 0 2 1 3 2 4 4 2 3 3 3 3 7 7 5 8 8 4 3 5 5 4 6 11 11 10 11 10 8 8 6 5 5
21 20 27 39 51 43 14 1 10 12 9 14 13 7 6 5 9 17 16 9 6 8 8 7 10 11 8 10 10 13 15 8 5 8 4 5 5 3 17 34 32 19 14 17 20 15 7 4 5 7 6 7 6 4 4 3 2 1 4 5 6 7 6 5 4 3 6 6 7 7 9 7 2 2 3 5 3 5 10 8 7 9 9 9 8 6 7 7
13 7 12 20 30 29 11 4 2 8 9 11 10 7 7 6 6 15 19 10 4 8 7 6 10 9 8 12 10 11 13 4 4 8 6 7 5 1 10 28 28 21 18 22 27 17 4 3 7 9 11 10 7 4 5 9 7 6 7 7 7 6 6 5 4 5 6 3 5 10 13 9 6 3 4 5 3 4 8 9 9 10 11 12 10 7 7 8
7 6 11 12 13 14 9 6 3 7 10 11 7 6 10 11 6 9 12 7 8 13 7 4 11 11 11 16 12 11 12 5 5 10 7 6 3 1 6 14 15 20 20 22 25 15 4 4 8 8 8 7 6 6 9 13 12 12 10 9 8 7 7 6 6 7 6 5 7 13 11 12 10 7 7 8 6 5 7 11 15 15 13 13 12 10 9 9
4 7 15 17 13 11 11 12 12 12 16 16 9 6 10 12 12 10 6 4 11 15 8 5 12 16 18 19 13 11 12 6 6 11 7 5 5 4 5 3 2 11 16 14 14 9 5 6 7 5 5 4 6 9 11 13 11 11 12 12 11 10 10 12 14 12 9 8 14 11 8 13 13 9 10 10 8 10 13 17 19 16 13 13 15 15 12 8
4 4 10 14 9 8 11 12 12 14 17 16 9 9 12 13 15 10 3 6 10 10 9 11 14 17 19 18 14 12 13 10 8 8 6 7 9 6 5 3 3 5 8 7 5 3 3 4 4 6 6 3 6 10 11 11 9 7 11 13 13 15 17 18 19 16 12 12 15 7 6 15 13 8 9 12 15 18 17 15 15 15 15 15 17 17 13 8
4 3 6 8 2 4 8 8 7 9 11 11 8 9 14 16 16 10 4 10 13 8 10 17 18 15 15 16 15 14 18 17 14 11 9 9 7 4 4 4 2 4 6 5 2 1 2 4 3 7 6 3 5 5 4 6 8 8 9 12 15 18 19 19 17 12 8 10 14 8 9 15 8 7 11 14 15 13 8 8 12 14 16 16 16 16 13 10
4 3 6 7 2 5 10 8 8 8 8 9 8 8 13 16 17 12 3 5 11 9 9 15 16 12 10 14 15 15 18 16 15 18 21 19 15 10 6 6 7 8 6 5 4 2 3 3 2 6 6 5 4 6 6 5 6 4 10 16 19 18 15 13 11 8 9 13 13 10 12 11 2 6 11 11 7 6 6 10 13 15 16 17 17 17 15 13
7 6 7 10 3 4 11 9 7 9 9 11 10 9 12 13 14 14 6 1 5 11 14 17 14 9 8 11 14 16 18 18 21 26 27 26 22 14 12 16 18 15 9 6 5 3 6 6 3 5 7 4 2 8 8 8 6 4 12 14 16 13 10 8 8 10 13 13 9 10 12 8 4 5 8 6 6 7 12 16 19 20 21 21 19 18 17 16
Wind_Direction
241 230 225 229 229 220 216 215 214 215 216 213 213 215 213 209 211 214 214 212 211 211 210 207 202 200 204 204 206 210 216 220 219 217 218 214 209 211 206 197 197 181 166 170 136 164 182 179 181 265 338 19 30 267 217 224 214 171 130 132 232 219 206 223 226 192 156 156 173 180 176 156 132 131 127 129 139 132 136 138 133 150 148 157 171 171 174 177
243 232 226 228 230 224 216 215 213 213 215 213 212 213 214 213 212 213 215 214 212 211 211 209 206 205 208 205 204 206 214 220 222 223 219 214 213 215 209 201 205 199 179 179 159 172 173 148 148 73 322 275 45 9 308 230 206 196 148 152 221 212 216 317 295 181 149 158 171 176 179 168 155 144 138 129 132 131 123 123 134 136 131 143 153 162 173 177
243 232 226 225 227 227 217 214 213 211 213 214 212 213 215 215 214 213 214 214 212 211 211 211 209 209 213 215 211 206 211 221 230 229 220 215 218 217 211 204 207 208 189 181 173 174 172 137 116 59 350 329 62 7 307 239 210 214 174 172 235 230 252 355 357 228 180 162 158 167 176 176 168 153 150 145 143 144 143 146 144 140 142 149 157 166 174 179
244 235 229 227 226 227 218 212 212 209 210 213 212 211 213 215 215 214 213 213 213 211 210 210 209 210 214 216 213 208 207 225 243 235 223 217 219 215 210 204 204 208 194 183 183 180 181 161 108 39 359 337 311 352 297 228 220 204 171 199 241 257 264 335 359 325 180 162 160 167 162 172 178 168 161 147 140 179 183 176 173 162 158 159 163 171 177 183
242 240 232 228 226 227 220 212 212 209 208 212 211 211 212 214 216 216 214 212 211 210 207 205 204 205 207 205 204 204 197 217 257 239 229 221 218 214 209 203 199 204 195 186 191 188 190 187 136 62 12 340 320 5 281 235 227 225 222 223 247 293 199 294 331 47 166 162 158 162 154 168 175 175 174 161 160 211 193 190 194 185 178 176 174 176 182 187
240 242 235 226 222 225 221 212 214 212 209 210 209 210 212 214 215 217 215 212 210 209 206 203 201 201 201 199 199 196 191 187 98 211 225 219 216 214 208 204 197 198 195 188 194 193 190 189 150 70 33 338 314 298 261 255 229 226 269 227 234 249 190 235 232 79 163 162 153 163 164 160 161 178 185 179 193 207 197 198 202 201 199 195 186 184 188 193
241 241 238 228 220 220 218 211 211 210 206 206 206 208 211 212 213 215 213 212 213 210 208 205 203 201 196 195 194 191 198 209 172 126 225 214 209 209 204 204 199 193 193 190 191 188 188 189 174 118 53 308 293 263 268 289 240 214 278 241 223 228 195 189 181 91 152 157 153 163 157 156 158 175 188 192 209 207 203 203 206 207 201 197 193 194 198 200
243 240 237 230 223 221 219 215 211 207 204 203 203 206 209 211 211 213 210 210 213 211 210 207 203 199 193 191 184 187 207 215 213 218 320 212 198 202 199 200 199 193 191 191 192 186 186 188 185 182 71 234 268 269 282 317 258 207 248 243 207 226 210 180 175 117 135 142 145 154 149 163 164 159 186 199 198 191 196 199 203 200 193 196 198 200 202 203
243 240 236 230 225 224 224 224 213 205 204 201 201 204 205 207 209 212 211 209 210 211 211 207 202 196 192 191 182 191 220 219 219 228 275 213 191 195 197 197 196 193 188 190 201 195 187 186 184 188 231 246 263 273 295 350 247 235 257 237 185 192 204 175 176 152 136 139 147 148 132 161 168 158 194 202 186 175 181 185 192 192 190 194 199 203 203 204
242 239 237 231 226 224 224 226 217 206 204 201 199 201 202 205 207 209 211 209 207 209 211 208 202 194 189 188 181 198 232 226 226 230 249 208 185 188 196 197 194 192 188 187 195 196 192 186 179 186 256 260 260 264 279 226 244 308 280 222 178 164 179 174 181 171 152 145 154 149 122 154 172 178 213 202 185 172 173 168 179 188 189 193 198 202 203 207
240 236 234 231 226 224 223 223 219 209 205 201 198 198 199 203 205 205 208 207 205 206 208 208 203 195 190 186 185 206 232 231 231 230 237 203 184 187 193 195 194 192 188 184 184 188 190 179 174 192 255 254 253 260 273 247 265 308 303 174 155 151 171 183 175 175 165 155 166 142 109 140 157 194 222 197 185 183 180 168 174 185 188 193 196 200 204 208
237 232 230 230 226 223 220 219 218 211 203 199 198 197 196 201 206 205 205 206 206 205 204 204 200 195 189 186 199 211 218 224 224 219 222 208 188 189 194 195 194 192 188 183 176 177 176 168 174 214 242 260 276 258 286 278 263 264 255 289 242 108 206 201 170 177 178 174 174 133 90 241 196 220 220 196 189 192 187 177 178 186 190 194 196 199 204 207
233 228 225 226 224 219 215 214 218 212 199 195 196 194 192 197 203 204 204 204 204 204 201 197 192 190 184 187 209 210 207 224 218 205 208 209 191 189 196 197 194 191 192 187 175 172 166 163 184 231 245 268 282 253 291 295 205 220 231 235 208 352 291 212 178 176 178 173 176 149 168 249 234 228 219 200 194 191 188 185 184 188 193 196 198 201 205 207
228 225 221 222 221 216 210 209 213 206 194 192 192 190 189 192 199 202 200 200 199 199 197 188 181 183 182 190 208 201 204 235 215 197 199 197 186 185 188 190 188 186 190 186 175 169 162 167 208 243 250 258 263 272 301 269 184 200 214 202 169 166 267 235 176 163 158 189 184 155 215 248 253 246 224 201 195 191 187 187 187 189 192 197 202 205 209 211
223 220 218 217 216 213 208 206 209 202 190 189 189 185 185 189 195 196 195 196 194 193 190 181 175 174 175 189 201 197 207 225 200 194 196 189 181 179 179 181 180 175 180 182 175 169 166 186 225 239 248 254 255 265 301 249 221 167 194 238 214 173 258 304 182 171 153 189 191 154 209 256 271 272 216 193 190 190 190 190 191 192 191 196 202 206 213 216
218 216 213 212 212 211 206 202 206 202 190 187 186 180 181 185 189 193 195 193 188 188 184 176 172 168 166 183 190 194 207 211 189 187 191 188 182 176 174 177 177 172 172 176 176 175 180 204 223 229 239 249 238 208 225 264 244 208 179 205 212 184 227 320 213 200 164 140 194 193 197 250 277 278 188 185 187 189 191 194 197 198 197 198 202 207 212 215
213 211 208 207 207 207 204 200 203 200 189 185 181 176 177 180 184 188 188 185 184 184 180 171 165 164 163 175 176 187 199 201 184 182 183 186 186 178 172 174 174 174 171 169 176 182 191 204 204 227 236 229 207 173 193 222 204 220 170 190 226 185 179 216 262 222 172 143 196 208 216 251 278 269 176 183 189 191 193 198 202 204 205 204 205 209 212 214
208 207 203 202 201 201 200 200 202 199 189 182 176 172 174 177 181 180 174 176 177 171 172 167 160 159 188 193 182 183 192 192 179 183 181 179 188 185 175 174 173 173 170 166 178 183 186 194 182 209 227 208 218 181 186 211 183 171 166 190 249 207 180 192 232 211 168 160 196 181 231 261 270 258 195 192 191 195 200 203 206 209 210 209 209 211 214 217
205 202 199 198 196 196 198 198 200 196 184 178 174 168 166 167 171 172 169 173 168 153 164 175 168 163 206 193 186 179 186 187 174 179 181 176 184 185 179 178 175 171 165 164 186 183 176 175 177 207 219 203 214 184 189 210 176 165 174 181 201 209 224 209 236 232 165 160 205 193 211 243 247 240 218 208 200 203 209 208 207 210 212 213 213 215 218 221
201 199 197 196 193 194 197 194 194 187 177 173 167 159 155 155 155 161 166 172 172 156 167 184 174 150 154 176 176 171 176 181 175 176 179 176 176 176 178 177 169 167 166 160 182 183 175 176 195 205 207 197 207 193 207 233 205 145 159 189 199 198 239 254 268 292 152 156 215 215 218 251 251 241 232 219 210 214 220 218 214 211 211 214 215 218 221 226
197 195 195 194 191 193 192 186 182 178 174 171 164 159 159 160 159 168 163 171 184 172 137 186 175 47 142 164 167 167 161 164 172 174 175 175 172 169 172 170 158 166 178 160 155 173 178 197 207 195 194 195 204 205 221 246 259 121 135 180 214 204 219 262 269 304 347 161 240 243 233 263 258 246 243 218 201 216 221 219 219 215 212 214 216 219 223 228
194 193 194 192 189 192 190 184 179 174 172 169 167 167 169 169 173 176 164 159 188 183 170 184 181 357 156 160 167 169 157 150 163 171 172 171 172 171 167 168 162 167 175 162 154 166 187 211 197 180 190 202 209 209 221 239 241 218 114 139 214 208 184 307 320 331 14 164 265 334 237 255 261 256 248 211 198 221 225 222 223 220 214 214 215 218 223 225
192 191 192 189 189 190 187 186 183 174 171 170 171 173 171 171 174 171 159 131 175 187 187 183 188 178 153 157 167 168 159 157 162 169 172 170 172 174 165 165 171 166 172 174 167 169 188 212 193 180 189 204 220 211 215 236 236 212 115 122 229 203 149 227 289 320 15 113 182 54 337 273 272 279 271 230 222 232 236 232 230 226 221 220 220 220 222 223
189 190 190 185 185 186 181 181 180 174 172 172 173 174 168 169 172 163 146 96 155 187 188 182 186 174 156 157 166 168 163 165 168 168 172 173 169 169 167 167 169 167 179 179 166 171 188 190 186 180 188 199 206 204 205 219 238 237 157 143 199 191 156 176 171 132 15 359 114 82 356 303 263 256 265 245 232 235 240 234 231 230 229 230 227 224 225 226
187 188 189 183 183 185 177 173 174 174 172 172 173 172 166 163 169 161 139 77 144 171 180 181 186 181 163 159 165 168 157 162 174 170 170 176 170 161 167 173 174 173 179 172 155 171 199 184 179 178 188 194 192 190 194 188 203 250 220 173 176 168 140 124 118 95 46 338 289 107 29 294 289 259 254 254 248 246 238 226 225 228 228 229 229 227 227 227
186 187 188 184 181 179 174 170 172 171 170 172 173 170 166 157 161 161 144 62 171 161 159 176 185 182 164 162 163 159 148 162 180 173 171 177 174 164 164 173 179 175 171 167 153 179 207 169 179 182 177 185 187 187 193 174 162 222 243 199 165 140 123 129 131 110 108 255 281 90 152 258 315 304 262 254 256 259 245 227 227 228 226 226 228 231 230 229
186 186 185 183 177 173 172 170 170 171 170 173 172 167 164 155 155 157 144 30 205 157 145 166 178 175 166 165 163 156 151 160 167 174 174 173 172 168 170 175 167 172 168 160 177 201 141 147 191 193 165 170 181 191 198 156 140 209 240 145 137 133 137 150 133 130 186 225 316 19 126 217 302 278 269 260 244 268 264 242 237 231 228 228 230 234 234 233
185 185 181 179 175 173 173 170 169 172 172 170 168 165 158 154 154 150 138 195 170 141 144 158 169 171 166 167 169 161 141 150 152 179 177 171 170 170 175 185 165 169 176 168 187 221 140 168 193 184 158 163 183 192 181 145 132 237 223 137 145 147 144 144 122 120 115 96 296 314 110 185 275 271 295 309 267 288 277 247 239 232 230 231 233 236 236 236
184 184 180 176 175 174 174 172 170 171 169 165 163 161 155 155 154 142 152 195 137 130 154 152 158 168 162 167 177 162 143 154 158 175 175 174 177 173 169 186 169 146 167 164 168 206 190 186 191 175 168 186 191 194 171 154 154 209 168 92 86 85 93 107 110 116 78 73 242 261 202 181 278 284 306 323 275 274 267 251 240 233 231 233 236 239 239 238
186 184 179 173 171 171 171 169 168 168 165 161 160 160 158 155 151 150 195 190 128 146 156 149 160 164 156 160 179 163 151 157 148 157 172 178 179 178 165 176 163 115 70 55 115 202 307 170 182 162 166 173 157 116 76 168 154 134 103 68 57 37 39 52 57 98 101 269 247 242 202 169 276 281 251 228 229 233 242 261 262 246 240 237 239 242 241 239
184 182 175 170 167 168 168 164 166 169 163 157 157 159 157 148 144 171 180 149 125 151 150 144 159 161 158 161 170 166 153 128 141 152 167 175 174 180 164 169 159 113 99 68 72 342 16 79 179 14 89 129 117 87 13 12 141 118 96 94 85 18 15 23 2 49 150 250 260 252 195 163 224 263 246 242 256 244 224 237 251 254 252 247 246 246 244 243
179 181 175 170 167 170 169 163 166 168 161 157 158 158 151 133 192 179 155 146 150 176 161 151 159 164 165 165 166 165 143 128 159 159 162 164 174 187 177 180 171 148 166 164 135 25 34 27 286 356 327 149 122 115 24 0 114 114 114 121 118 66 29 23 294 283 223 245 259 266 190 182 229 250 256 266 279 269 238 229 249 261 261 259 255 249 245 244
178 179 176 170 167 171 170 164 165 165 160 159 159 158 154 159 178 162 148 173 175 174 166 157 162 166 166 166 164 158 135 142 171 164 158 155 163 195 218 225 175 151 169 166 128 114 50 315 316 16 299 226 158 150 147 179 164 138 138 137 139 132 104 198 240 266 260 260 269 274 259 252 273 261 246 244 254 260 260 264 270 268 262 256 248 241 238 237
181 175 173 169 167 172 169 165 165 163 162 161 156 160 178 169 173 160 162 193 167 159 161 155 157 160 165 171 164 156 141 146 168 158 151 155 165 196 220 219 188 131 116 151 153 160 164 256 243 172 239 238 175 167 155 148 156 171 159 137 150 162 149 185 201 199 232 266 294 295 257 195 203 253 243 236 246 259 270 277 268 257 253 247 237 233 232 235
181 171 168 166 166 169 169 165 164 163 163 161 154 168 178 169 172 164 166 176 150 150 153 149 148 152 166 174 166 166 149 139 169 157 157 174 180 191 197 200 193 149 136 166 181 163 155 180 280 293 316 128 158 233 119 127 149 210 150 125 166 182 146 143 181 178 176 183 281 256 238 207 210 273 273 261 255 260 266 266 251 235 235 232 233 238 237 241
173 166 163 161 160 165 170 166 164 165 164 161 162 178 180 183 177 167 164 163 157 152 146 147 151 154 166 169 169 176 148 127 168 165 173 185 186 194 193 194 193 176 162 164 154 149 149 149 322 338 353 33 128 267 304 138 169 179 135 170 205 168 120 119 229 81 108 204 258 198 240 285 315 302 289 278 264 269 273 268 250 237 235 234 240 245 244 245
165 160 157 156 157 163 169 166 165 167 165 163 183 181 184 192 165 148 149 146 148 146 142 150 164 164 165 163 174 178 155 142 169 172 175 179 191 196 193 199 196 188 177 155 144 182 144 116 322 24 102 296 342 320 343 44 124 131 158 198 190 103 95 117 200 355 82 240 269 172 208 271 340 283 313 327 289 271 272 266 257 251 244 245 251 253 250 248
158 155 152 155 159 163 167 166 165 166 164 170 194 187 189 185 141 124 132 135 141 145 146 157 168 172 173 169 174 175 165 166 179 177 173 180 213 194 183 195 196 190 183 154 145 196 134 111 311 358 187 269 340 61 142 358 38 139 183 187 123 129 180 151 175 203 193 230 273 279 234 235 193 220 291 307 276 263 270 275 264 248 241 247 258 263 259 252
154 151 151 157 160 163 167 166 163 163 165 182 192 190 178 173 147 137 139 140 145 150 156 164 162 173 181 172 168 170 171 175 175 174 178 187 225 194 178 183 186 185 183 161 155 192 142 123 242 293 295 266 358 68 168 223 350 46 42 136 108 150 180 172 171 171 168 209 253 290 287 257 229 214 226 242 245 248 269 288 262 239 243 252 263 272 268 259
153 144 153 161 161 164 165 161 159 164 178 193 189 185 160 163 157 147 147 148 151 155 161 166 163 166 175 168 160 165 172 170 169 180 193 179 192 200 183 177 167 175 178 164 158 170 146 124 163 274 324 154 188 214 179 178 173 131 145 179 194 38 117 154 190 157 142 179 215 244 266 265 250 211 205 227 240 229 225 239 229 223 232 248 263 272 272 267
154 135 158 162 162 162 157 154 159 175 192 197 191 176 165 155 136 150 152 150 150 151 152 160 166 164 165 164 161 165 164 156 169 182 193 175 177 207 192 176 160 162 165 161 167 170 152 125 136 163 206 181 226 243 193 186 181 164 176 185 182 149 120 159 221 248 124 179 189 187 242 261 249 214 205 214 223 222 217 218 220 220 229 255 269 268 269 271
153 127 157 162 163 159 153 151 180 185 192 192 180 158 158 143 135 155 155 150 150 136 140 155 165 161 164 166 161 163 161 158 177 181 177 181 182 190 184 170 159 160 162 164 172 153 111 105 113 144 192 209 248 261 204 183 293 205 213 192 173 162 141 161 203 219 173 213 181 158 239 259 241 213 207 206 210 219 226 226 232 244 263 280 278 265 265 269
145 134 154 162 165 161 156 158 181 182 201 175 171 170 155 136 145 156 154 153 153 136 143 159 164 162 170 167 157 161 163 162 182 182 148 152 183 186 170 163 158 160 162 158 169 152 107 96 102 94 300 296 305 310 335 47 46 250 257 133 149 201 163 157 185 167 169 208 181 175 251 261 246 211 206 218 227 237 246 242 247 267 283 284 278 273 271 265
130 137 150 161 167 167 165 172 174 180 186 165 173 187 137 126 149 155 158 161 156 148 155 164 167 168 170 164 162 167 167 166 187 186 146 136 186 185 165 163 162 166 173 176 178 171 148 128 123 111 62 351 342 318 293 17 73 216 238 186 182 207 151 117 129 126 192 209 171 178 241 251 260 239 220 238 262 269 262 248 245 266 279 279 279 293 307 285
129 139 146 155 168 176 183 179 170 175 173 169 172 167 144 148 165 163 159 156 147 144 149 155 159 155 146 149 157 167 169 161 163 175 145 131 172 184 167 169 169 172 181 175 166 159 153 163 151 144 164 189 197 215 210 169 129 220 219 194 194 195 174 151 127 152 222 214 162 193 237 238 264 321 288 286 306 294 277 261 242 259 279 296 302 313 321 312
133 141 136 145 170 188 214 326 148 164 170 170 169 168 153 144 162 161 154 150 135 129 124 137 141 129 134 147 145 165 175 141 114 162 156 148 164 312 180 177 174 171 170 164 157 148 121 169 181 187 194 190 181 184 152 133 150 204 199 181 189 194 178 149 127 181 203 165 174 222 235 231 226 244 284 291 276 258 276 290 298 301 309 316 318 314 303 293
139 156 152 144 164 192 229 278 226 169 175 175 169 176 162 147 147 158 155 160 151 137 119 128 146 146 159 158 151 166 171 117 112 158 152 147 162 39 155 171 174 167 159 156 157 146 99 194 199 198 196 180 154 160 155 149 172 196 183 175 188 181 163 166 199 207 159 131 228 232 228 236 233 215 237 259 256 250 265 278 287 294 300 307 311 306 290 275
130 162 169 166 163 180 200 211 203 183 178 178 169 161 158 151 156 164 167 159 150 146 132 142 167 169 166 162 155 158 161 136 142 162 150 143 149 108 109 83 98 157 152 149 159 144 117 191 197 167 171 179 152 158 164 164 179 187 174 179 185 175 176 193 214 214 165 183 237 228 207 238 236 203 213 228 230 244 257 266 276 283 284 292 298 295 289 279
89 115 167 172 178 186 175 175 183 183 180 178 167 158 161 161 162 163 143 140 155 163 154 158 177 175 165 162 153 151 166 165 162 170 157 149 150 129 122 106 63 137 137 133 156 132 116 179 184 145 149 188 176 171 171 164 167 179 183 189 185 183 194 202 213 215 194 214 247 239 223 251 245 200 206 219 225 239 254 265 272 273 270 275 281 279 280 280
92 94 153 159 157 156 134 119 144 175 185 181 173 169 167 167 166 161 148 157 165 179 170 166 173 169 160 161 156 167 182 175 165 167 150 139 153 150 146 158 138 114 116 124 144 53 117 178 173 125 129 208 201 162 138 146 157 173 193 202 197 195 203 209 214 215 201 234 255 252 254 264 252 171 198 217 222 231 248 258 258 259 262 265 266 265 268 274
96 90 144 155 129 143 147 142 157 173 185 185 184 178 173 173 168 157 138 165 163 165 168 162 158 150 148 159 165 177 180 166 157 163 158 156 166 170 163 166 152 132 125 147 153 107 120 160 108 109 145 226 210 122 100 98 113 168 222 216 205 200 204 211 213 199 194 221 240 244 252 260 218 155 197 204 193 200 230 247 255 260 262 262 260 260 266 277
89 85 134 153 138 151 160 157 165 176 186 189 186 181 177 176 168 154 139 100 155 154 149 143 137 131 143 167 178 174 166 160 160 163 162 160 158 150 146 155 155 149 152 161 149 141 149 149 142 144 161 235 222 134 122 95 90 252 244 210 195 200 202 205 219 215 207 208 214 229 241 236 152 169 196 171 155 203 232 242 250 256 258 261 262 262 268 280
Height
1434 1435 1437 1439 1442 1446 1449 1452 1455 1459 1462 1465 1468 1470 1473 1476 1479 1482 1484 1487 1490 1493 1497 1500 1502 1505 1507 1508 1510 1512 1514 1516 1516 1517 1516 1519 1523 1525 1527 1530 1531 1531 1532 1534 1535 1536 1537 1537 1538 1540 1541 1541 1542 1542 1543 1544 1544 1545 1547 1551 1552 1549 1546 1542 1540 1539 1538 1540 1541 1541 1541 1542 1545 1546 1546 1548 1550 1550 1552 1554 1555 1556 1557 1558 1559 1560 1561 1563
1430 1432 1433 1436 1439 1442 1446 1449 1452 1456 1459 1463 1466 1468 1471 1474 1477 1479 1482 1485 1488 1492 1495 1498 1501 1504 1506 1508 1510 1511 1513 1515 1515 1514 1514 1518 1522 1524 1526 1528 1529 1531 1531 1533 1535 1535 1536 1538 1538 1540 1541 1541 1541 1542 1543 1543 1544 1545 1546 1549 1549 1545 1542 1539 1537 1535 1534 1536 1538 1540 1542 1542 1544 1545 1546 1549 1550 1550 1552 1555 1555 1556 1557 1558 1559 1560 1561 1563
1426 1428 1430 1433 1436 1439 1442 1445 1448 1453 1456 1460 1464 1466 1469 1472 1475 1477 1480 1483 1486 1490 1493 1497 1500 1503 1505 1507 1509 1511 1512 1514 1513 1510 1512 1517 1520 1522 1525 1526 1528 1530 1530 1531 1534 1536 1537 1538 1539 1541 1541 1541 1541 1542 1543 1543 1544 1543 1545 1548 1545 1541 1540 1538 1537 1535 1533 1534 1536 1540 1542 1543 1544 1544 1545 1547 1550 1551 1551 1553 1554 1554 1556 1557 1559 1560 1561 1563
1423 1425 1427 1430 1433 1436 1439 1442 1445 1449 1453 1457 1461 1464 1467 1470 1473 1475 1478 1481 1485 1488 1492 1495 1498 1501 1504 1507 1509 1510 1512 1514 1509 1506 1511 1515 1517 1521 1523 1525 1526 1528 1529 1531 1534 1536 1538 1539 1540 1540 1540 1541 1541 1541 1542 1543 1544 1543 1544 1545 1541 1539 1539 1538 1537 1535 1534 1533 1535 1538 1541 1543 1544 1545 1545 1546 1550 1551 1550 1550 1550 1552 1554 1556 1558 1559 1560 1562
1420 1422 1425 1427 1430 1433 1436 1440 1443 1447 1450 1454 1459 1462 1465 1468 1471 1474 1476 1479 1483 1486 1490 1494 1497 1500 1504 1505 1508 1509 1512 1515 1507 1504 1510 1512 1515 1518 1521 1523 1524 1526 1528 1530 1533 1536 1538 1539 1539 1539 1540 1541 1541 1541 1542 1542 1543 1543 1541 1541 1539 1539 1539 1538 1537 1536 1535 1534 1535 1538 1540 1542 1543 1545 1545 1545 1546 1547 1547 1548 1549 1550 1551 1553 1556 1558 1559 1561
1418 1419 1422 1424 1427 1430 1433 1437 1440 1444 1448 1452 1456 1459 1463 1466 1469 1472 1474 1477 1481 1484 1488 1492 1496 1499 1502 1504 1507 1508 1511 1511 1504 1503 1507 1509 1513 1516 1519 1521 1523 1525 1527 1529 1532 1535 1537 1538 1539 1541 1542 1542 1542 1542 1542 1541 1542 1543 1540 1538 1539 1538 1537 1537 1537 1537 1536 1535 1535 1537 1539 1540 1543 1544 1544 1544 1544 1545 1546 1548 1549 1550 1551 1552 1554 1556 1557 1558
1415 1417 1418 1420 1424 1427 1430 1433 1437 1441 1445 1449 1453 1457 1461 1464 1467 1470 1472 1475 1479 1482 1487 1491 1495 1497 1500 1503 1505 1507 1507 1504 1502 1503 1505 1507 1510 1513 1516 1519 1522 1524 1526 1528 1531 1534 1536 1537 1539 1541 1543 1544 1544 1543 1541 1541 1541 1541 1540 1538 1538 1537 1537 1537 1537 1537 1536 1535 1535 1536 1538 1540 1541 1543 1544 1544 1544 1545 1546 1547 1548 1549 1550 1552 1553 1554 1555 1556
1412 1414 1415 1417 1421 1424 1426 1430 1434 1438 1442 1446 1450 1454 1459 1462 1465 1469 1471 1474 1477 1481 1485 1489 1493 1495 1498 1500 1502 1505 1503 1499 1500 1502 1504 1505 1507 1510 1514 1517 1520 1523 1524 1527 1529 1532 1536 1538 1539 1540 1543 1546 1545 1542 1541 1541 1540 1540 1540 1537 1537 1537 1536 1536 1536 1536 1536 1536 1536 1537 1539 1540 1541 1542 1543 1543 1544 1544 1545 1546 1547 1548 1549 1550 1551 1552 1554 1556
1408 1410 1412 1414 1417 1420 1422 1426 1431 1435 1439 1443 1447 1452 1456 1460 1464 1467 1469 1472 1474 1478 1482 1487 1491 1493 1496 1498 1501 1503 1497 1496 1500 1502 1503 1504 1505 1509 1511 1514 1518 1521 1523 1525 1527 1531 1534 1538 1539 1541 1543 1545 1545 1542 1540 1542 1541 1539 1539 1537 1536 1536 1536 1536 1535 1536 1536 1536 1536 1537 1539 1540 1541 1542 1542 1542 1543 1543 1544 1545 1545 1547 1548 1549 1550 1551 1553 1554
1403 1406 1408 1411 1413 1415 1418 1423 1428 1433 1437 1440 1444 1449 1454 1458 1461 1465 1468 1470 1472 1476 1480 1484 1488 1492 1495 1497 1501 1499 1494 1497 1502 1502 1503 1504 1505 1508 1510 1512 1515 1518 1521 1523 1525 1528 1532 1536 1539 1542 1545 1544 1543 1541 1540 1542 1541 1539 1538 1536 1535 1536 1536 1536 1535 1536 1536 1536 1536 1538 1540 1540 1541 1542 1541 1540 1541 1542 1543 1544 1545 1546 1547 1548 1549 1551 1552 1553
1397 1400 1403 1406 1409 1412 1414 1420 1426 1430 1434 1438 1442 1446 1451 1456 1459 1463 1466 1468 1471 1474 1478 1482 1486 1489 1491 1495 1497 1494 1493 1497 1500 1501 1503 1504 1505 1507 1508 1511 1514 1516 1519 1521 1524 1527 1531 1535 1539 1543 1544 1543 1541 1539 1538 1539 1539 1538 1538 1536 1536 1536 1536 1536 1536 1536 1536 1537 1537 1538 1540 1541 1541 1541 1538 1538 1540 1541 1542 1543 1545 1545 1546 1548 1549 1550 1551 1552
1390 1394 1398 1402 1405 1409 1412 1418 1423 1427 1430 1435 1440 1444 1449 1454 1458 1461 1464 1467 1470 1473 1476 1479 1483 1486 1490 1493 1492 1491 1494 1497 1498 1500 1503 1504 1505 1507 1509 1511 1513 1515 1517 1520 1523 1527 1531 1534 1539 1542 1541 1540 1539 1538 1537 1537 1536 1537 1538 1538 1537 1537 1536 1536 1535 1536 1536 1537 1537 1538 1542 1543 1540 1537 1535 1537 1539 1540 1541 1542 1543 1545 1546 1547 1548 1549 1550 1551
1384 1388 1393 1397 1401 1405 1409 1415 1420 1423 1427 1432 1437 1442 1447 1452 1456 1460 1463 1466 1469 1472 1475 1477 1481 1484 1488 1490 1488 1490 1495 1495 1497 1499 1501 1503 1504 1507 1510 1512 1514 1517 1518 1520 1523 1527 1531 1534 1538 1539 1539 1540 1539 1537 1536 1535 1536 1537 1537 1538 1539 1539 1537 1534 1535 1536 1536 1537 1536 1538 1544 1542 1535 1533 1533 1536 1537 1538 1540 1540 1541 1543 1544 1545 1546 1547 1548 1550
1377 1382 1387 1391 1396 1400 1405 1411 1417 1419 1424 1429 1435 1440 1445 1450 1455 1458 1461 1465 1468 1473 1476 1476 1479 1483 1486 1487 1488 1491 1494 1494 1496 1498 1500 1502 1503 1507 1510 1512 1515 1517 1520 1522 1525 1528 1531 1534 1537 1538 1538 1538 1537 1536 1535 1535 1536 1536 1537 1538 1539 1542 1538 1532 1534 1535 1535 1537 1535 1538 1543 1538 1531 1530 1531 1534 1535 1535 1537 1538 1539 1541 1542 1543 1544 1546 1547 1548
1370 1375 1381 1386 1390 1395 1400 1407 1414 1417 1421 1426 1432 1438 1443 1448 1453 1457 1460 1463 1467 1471 1475 1476 1477 1481 1485 1487 1488 1490 1492 1492 1494 1496 1498 1500 1502 1505 1508 1511 1515 1517 1521 1524 1526 1529 1532 1534 1536 1537 1536 1536 1536 1536 1536 1535 1535 1535 1539 1541 1540 1541 1538 1533 1533 1533 1534 1536 1535 1538 1542 1536 1529 1528 1528 1531 1533 1534 1535 1537 1538 1539 1540 1541 1542 1543 1545 1546
1363 1369 1375 1380 1385 1391 1396 1403 1411 1416 1418 1423 1430 1435 1441 1446 1452 1456 1459 1462 1466 1469 1471 1473 1476 1479 1483 1485 1486 1487 1489 1490 1492 1495 1498 1499 1501 1503 1506 1511 1514 1517 1521 1524 1527 1529 1532 1534 1535 1535 1534 1534 1534 1535 1537 1538 1537 1535 1538 1541 1539 1539 1539 1535 1533 1532 1532 1534 1535 1537 1538 1534 1529 1527 1527 1530 1531 1533 1534 1535 1537 1538 1539 1539 1540 1541 1542 1544
1356 1363 1369 1375 1381 1386 1392 1399 1408 1413 1416 1421 1427 1433 1440 1445 1450 1455 1458 1462 1467 1468 1469 1470 1473 1478 1482 1482 1482 1483 1485 1488 1490 1493 1497 1499 1502 1503 1506 1509 1513 1517 1520 1523 1527 1529 1531 1532 1533 1534 1533 1533 1532 1533 1540 1544 1540 1537 1537 1538 1536 1535 1538 1538 1534 1532 1532 1534 1535 1536 1537 1532 1529 1529 1529 1530 1531 1532 1533 1534 1535 1536 1537 1538 1538 1539 1540 1541
1350 1357 1364 1371 1377 1383 1389 1395 1405 1411 1414 1419 1425 1431 1438 1443 1449 1454 1456 1461 1464 1466 1471 1472 1474 1479 1479 1476 1476 1478 1482 1486 1489 1492 1495 1498 1501 1504 1505 1508 1511 1515 1519 1522 1525 1527 1529 1530 1532 1533 1532 1532 1531 1532 1540 1541 1536 1536 1537 1538 1536 1534 1535 1536 1532 1529 1530 1533 1534 1536 1538 1533 1529 1530 1530 1530 1531 1531 1531 1532 1533 1534 1535 1536 1537 1538 1538 1539
1345 1353 1359 1366 1373 1380 1386 1392 1400 1407 1410 1416 1423 1429 1437 1442 1448 1451 1452 1455 1456 1459 1467 1467 1464 1466 1465 1464 1470 1475 1480 1484 1487 1490 1493 1495 1499 1503 1506 1508 1511 1513 1516 1520 1523 1524 1526 1529 1531 1532 1530 1530 1529 1529 1533 1531 1528 1529 1531 1533 1534 1534 1534 1532 1529 1528 1529 1532 1534 1534 1534 1530 1527 1530 1530 1530 1531 1531 1530 1531 1531 1532 1533 1534 1535 1535 1536 1536
1341 1349 1356 1362 1369 1377 1384 1388 1393 1401 1405 1410 1417 1423 1429 1434 1441 1448 1449 1450 1449 1449 1455 1456 1455 1457 1455 1458 1467 1473 1478 1484 1486 1488 1491 1494 1497 1501 1506 1508 1511 1514 1515 1517 1520 1522 1524 1528 1528 1527 1527 1528 1527 1527 1527 1525 1524 1525 1527 1530 1530 1531 1532 1530 1529 1528 1528 1531 1533 1531 1531 1529 1528 1528 1528 1529 1530 1531 1530 1530 1529 1529 1530 1531 1532 1532 1532 1533
1338 1346 1353 1359 1367 1375 1382 1386 1390 1394 1399 1403 1406 1407 1409 1414 1421 1428 1436 1448 1452 1449 1452 1455 1456 1457 1455 1457 1463 1468 1475 1482 1485 1487 1490 1493 1495 1499 1504 1507 1509 1513 1514 1515 1519 1521 1523 1526 1525 1523 1525 1525 1525 1526 1525 1524 1525 1525 1526 1529 1530 1530 1531 1531 1530 1529 1529 1531 1531 1531 1531 1530 1527 1526 1526 1527 1529 1528 1527 1527 1526 1526 1527 1527 1528 1529 1529 1530
1336 1343 1350 1357 1365 1372 1379 1386 1390 1392 1395 1399 1400 1399 1399 1402 1407 1410 1418 1435 1448 1450 1453 1457 1457 1457 1457 1458 1462 1467 1472 1479 1484 1486 1488 1491 1493 1496 1500 1504 1507 1511 1512 1514 1518 1521 1524 1524 1522 1521 1523 1523 1524 1524 1524 1524 1524 1526 1526 1528 1531 1531 1530 1531 1531 1529 1529 1530 1531 1532 1531 1528 1525 1524 1524 1525 1526 1524 1522 1522 1522 1523 1524 1525 1525 1525 1526 1528
1334 1340 1348 1355 1362 1370 1374 1381 1390 1392 1392 1393 1395 1397 1400 1404 1410 1414 1418 1428 1443 1451 1452 1454 1456 1458 1459 1459 1463 1466 1469 1474 1479 1483 1486 1489 1492 1494 1498 1502 1505 1508 1511 1512 1514 1520 1524 1521 1518 1519 1520 1521 1523 1523 1523 1523 1523 1524 1526 1528 1530 1529 1529 1531 1531 1530 1530 1531 1532 1533 1532 1528 1524 1523 1522 1522 1521 1519 1519 1519 1519 1521 1521 1521 1521 1522 1524 1525
1331 1339 1347 1353 1361 1367 1370 1378 1388 1390 1388 1390 1394 1397 1402 1407 1411 1417 1422 1433 1445 1451 1451 1453 1456 1459 1459 1459 1462 1464 1467 1471 1475 1479 1483 1486 1489 1494 1497 1499 1503 1507 1509 1510 1512 1516 1518 1515 1515 1516 1517 1519 1521 1522 1522 1524 1525 1523 1523 1526 1527 1526 1527 1529 1530 1531 1531 1532 1532 1533 1534 1528 1522 1522 1519 1517 1518 1516 1516 1517 1518 1518 1519 1519 1520 1520 1521 1521
1329 1337 1344 1351 1357 1363 1370 1378 1382 1384 1387 1393 1396 1398 1404 1408 1412 1416 1421 1436 1448 1450 1451 1454 1457 1459 1459 1459 1462 1464 1467 1471 1473 1476 1480 1483 1486 1491 1495 1498 1501 1504 1507 1508 1511 1515 1513 1511 1513 1514 1515 1517 1519 1520 1520 1523 1526 1524 1520 1521 1523 1524 1525 1528 1530 1531 1533 1535 1532 1533 1539 1531 1521 1522 1519 1514 1516 1515 1514 1515 1514 1514 1515 1516 1517 1517 1517 1517
1328 1335 1341 1348 1353 1360 1371 1375 1377 1382 1387 1391 1393 1397 1403 1406 1413 1416 1421 1439 1448 1446 1448 1452 1455 1457 1456 1459 1462 1465 1470 1473 1474 1476 1479 1483 1485 1488 1493 1496 1497 1501 1504 1506 1509 1512 1511 1510 1510 1511 1513 1515 1517 1518 1517 1519 1525 1526 1521 1518 1520 1522 1524 1527 1529 1530 1534 1537 1534 1534 1539 1535 1524 1519 1516 1515 1515 1513 1513 1513 1511 1511 1511 1512 1512 1512 1513 1514
1327 1333 1339 1345 1350 1356 1363 1368 1375 1380 1381 1386 1390 1396 1402 1406 1412 1413 1426 1448 1448 1439 1444 1449 1452 1453 1453 1458 1460 1464 1470 1471 1474 1478 1478 1482 1485 1487 1491 1493 1494 1498 1499 1503 1510 1509 1508 1510 1510 1509 1511 1513 1516 1516 1515 1516 1522 1525 1520 1518 1520 1520 1522 1526 1527 1529 1532 1535 1535 1535 1536 1538 1532 1520 1514 1515 1514 1511 1511 1511 1509 1508 1509 1508 1508 1508 1509 1511
1325 1331 1337 1341 1347 1352 1355 1361 1370 1373 1376 1382 1387 1394 1400 1405 1411 1411 1427 1448 1441 1432 1439 1444 1448 1450 1451 1457 1459 1461 1463 1464 1471 1478 1477 1481 1485 1485 1489 1491 1492 1495 1494 1499 1509 1508 1505 1508 1509 1508 1510 1513 1513 1513 1512 1513 1519 1520 1518 1518 1520 1519 1522 1525 1526 1530 1534 1536 1538 1537 1536 1541 1537 1522 1514 1513 1513 1511 1508 1507 1507 1505 1506 1505 1505 1505 1506 1508
1324 1330 1334 1337 1345 1353 1357 1361 1366 1371 1379 1383 1387 1395 1398 1404 1409 1411 1424 1436 1431 1428 1433 1439 1446 1448 1450 1455 1459 1460 1461 1463 1468 1473 1477 1480 1482 1484 1487 1489 1490 1493 1495 1497 1503 1506 1505 1505 1506 1506 1508 1510 1510 1511 1512 1512 1515 1517 1517 1519 1520 1522 1524 1526 1529 1530 1536 1541 1539 1535 1535 1540 1536 1521 1515 1514 1511 1510 1506 1503 1503 1502 1502 1502 1501 1502 1502 1504
1322 1327 1332 1335 1342 1351 1357 1363 1368 1373 1379 1383 1388 1394 1399 1404 1407 1415 1430 1428 1424 1429 1431 1435 1440 1442 1447 1454 1458 1459 1460 1462 1464 1470 1477 1479 1481 1483 1485 1488 1490 1492 1496 1498 1501 1504 1504 1505 1505 1505 1506 1507 1508 1512 1514 1512 1513 1515 1517 1519 1522 1526 1527 1529 1531 1531 1538 1544 1539 1533 1533 1537 1538 1524 1514 1513 1509 1505 1504 1502 1502 1500 1499 1499 1498 1499 1499 1500
1319 1326 1332 1333 1337 1345 1352 1360 1367 1371 1378 1383 1389 1394 1400 1405 1404 1416 1428 1417 1416 1429 1429 1433 1438 1438 1443 1449 1455 1457 1458 1462 1463 1467 1474 1476 1480 1482 1483 1486 1488 1492 1499 1500 1503 1506 1505 1506 1507 1506 1506 1506 1507 1511 1514 1513 1513 1514 1516 1520 1526 1531 1532 1534 1536 1536 1543 1545 1537 1536 1536 1536 1540 1525 1510 1508 1505 1503 1503 1501 1500 1499 1497 1496 1496 1496 1497 1498
1318 1325 1331 1332 1336 1343 1348 1355 1362 1368 1376 1381 1387 1392 1396 1405 1408 1411 1416 1409 1414 1427 1424 1427 1433 1435 1440 1446 1451 1455 1457 1461 1462 1462 1467 1472 1477 1477 1477 1480 1481 1490 1500 1501 1504 1508 1507 1508 1508 1508 1507 1506 1506 1511 1517 1517 1515 1514 1517 1522 1531 1540 1543 1544 1545 1544 1547 1543 1536 1539 1538 1535 1535 1521 1507 1506 1503 1500 1500 1499 1498 1497 1495 1495 1494 1494 1495 1496
1318 1322 1330 1333 1336 1343 1348 1354 1362 1369 1375 1378 1385 1390 1390 1402 1407 1403 1408 1409 1409 1414 1414 1417 1423 1429 1436 1443 1448 1452 1456 1460 1461 1462 1465 1469 1476 1477 1476 1477 1476 1482 1492 1498 1503 1507 1510 1511 1509 1508 1508 1506 1505 1509 1516 1519 1517 1516 1518 1523 1531 1542 1550 1552 1551 1549 1546 1540 1537 1539 1537 1534 1530 1516 1505 1503 1499 1495 1495 1497 1497 1496 1495 1494 1494 1494 1495 1495
1319 1320 1328 1333 1336 1342 1347 1353 1361 1368 1374 1376 1382 1388 1389 1396 1396 1393 1403 1406 1402 1406 1409 1411 1420 1429 1435 1440 1444 1447 1452 1460 1461 1462 1467 1471 1477 1478 1475 1475 1475 1476 1485 1495 1499 1501 1507 1511 1509 1507 1507 1507 1506 1507 1510 1512 1515 1516 1515 1518 1524 1530 1538 1544 1543 1542 1541 1539 1540 1541 1535 1528 1520 1508 1500 1498 1496 1494 1493 1494 1495 1494 1494 1494 1494 1494 1494 1495
1319 1321 1325 1331 1335 1341 1346 1352 1359 1366 1372 1374 1378 1383 1385 1386 1384 1387 1397 1398 1398 1406 1409 1412 1420 1432 1439 1441 1443 1444 1448 1458 1461 1462 1467 1468 1470 1472 1470 1470 1472 1473 1479 1490 1495 1496 1500 1506 1508 1508 1507 1506 1507 1508 1507 1509 1514 1516 1514 1516 1519 1518 1521 1532 1536 1533 1536 1540 1541 1538 1530 1520 1511 1502 1497 1496 1495 1494 1493 1492 1493 1493 1493 1493 1493 1493 1493 1494
1317 1321 1324 1328 1331 1338 1345 1350 1357 1364 1367 1371 1376 1377 1373 1368 1367 1375 1383 1386 1389 1395 1403 1415 1422 1430 1441 1444 1444 1445 1446 1453 1460 1463 1466 1466 1466 1467 1466 1466 1468 1469 1471 1479 1489 1491 1495 1506 1511 1509 1509 1508 1508 1509 1507 1507 1511 1514 1516 1516 1516 1512 1513 1525 1535 1534 1535 1538 1535 1532 1525 1516 1511 1503 1494 1493 1493 1492 1492 1491 1491 1492 1492 1492 1492 1492 1492 1493
1311 1317 1322 1326 1330 1336 1342 1347 1354 1361 1365 1368 1370 1366 1360 1357 1357 1364 1372 1377 1383 1386 1396 1413 1419 1422 1434 1440 1442 1443 1443 1450 1457 1459 1464 1467 1464 1463 1464 1464 1464 1466 1467 1471 1481 1485 1492 1508 1513 1509 1509 1509 1508 1509 1508 1506 1507 1511 1515 1513 1511 1513 1513 1518 1529 1535 1538 1537 1532 1530 1524 1515 1515 1508 1495 1491 1492 1490 1490 1489 1490 1491 1491 1491 1490 1490 1491 1491
1308 1316 1323 1326 1331 1335 1340 1346 1353 1358 1364 1367 1366 1360 1355 1356 1357 1362 1368 1373 1379 1385 1393 1405 1411 1413 1421 1427 1431 1434 1436 1444 1451 1453 1458 1462 1457 1453 1457 1461 1461 1464 1465 1466 1475 1480 1485 1503 1514 1511 1510 1510 1508 1508 1509 1508 1507 1507 1509 1508 1509 1516 1518 1519 1526 1532 1537 1537 1530 1527 1524 1518 1516 1507 1495 1492 1491 1487 1487 1488 1489 1489 1489 1490 1489 1489 1490 1490
1308 1317 1324 1327 1330 1335 1340 1347 1353 1359 1364 1365 1362 1357 1355 1357 1357 1359 1365 1370 1375 1382 1389 1396 1401 1408 1414 1417 1421 1428 1431 1436 1443 1447 1450 1454 1452 1448 1450 1455 1458 1463 1464 1464 1471 1476 1479 1494 1511 1513 1509 1510 1509 1508 1509 1510 1509 1508 1509 1508 1508 1510 1513 1515 1519 1523 1529 1534 1530 1526 1524 1517 1508 1500 1493 1490 1488 1486 1486 1487 1487 1487 1488 1488 1488 1488 1488 1488
1309 1316 1324 1327 1330 1335 1341 1349 1355 1360 1361 1357 1352 1351 1351 1353 1356 1357 1360 1365 1371 1378 1384 1390 1394 1402 1410 1414 1419 1426 1429 1434 1440 1443 1444 1446 1448 1448 1447 1450 1455 1460 1464 1465 1468 1474 1478 1485 1502 1513 1512 1511 1509 1507 1507 1506 1506 1507 1509 1510 1510 1510 1510 1512 1514 1514 1518 1526 1528 1528 1526 1512 1497 1493 1490 1486 1486 1486 1486 1485 1485 1486 1486 1487 1487 1487 1487 1486
1308 1316 1322 1326 1330 1333 1339 1350 1357 1356 1354 1350 1348 1349 1350 1350 1353 1357 1359 1362 1369 1373 1378 1384 1390 1395 1403 1410 1415 1420 1426 1433 1438 1440 1441 1442 1444 1446 1445 1445 1450 1456 1462 1466 1466 1471 1477 1484 1499 1512 1513 1509 1506 1504 1504 1503 1502 1502 1503 1504 1505 1507 1509 1515 1519 1516 1513 1517 1520 1524 1524 1507 1490 1488 1487 1484 1485 1485 1485 1485 1484 1485 1485 1486 1486 1485 1485 1485
1306 1313 1318 1324 1329 1331 1335 1343 1347 1345 1345 1345 1345 1346 1348 1348 1351 1356 1359 1362 1368 1372 1376 1382 1388 1392 1397 1403 1409 1415 1421 1428 1433 1434 1436 1438 1438 1439 1440 1442 1446 1451 1458 1464 1466 1467 1474 1486 1501 1510 1510 1507 1506 1505 1506 1507 1504 1503 1503 1501 1501 1502 1502 1510 1517 1515 1514 1516 1515 1519 1519 1500 1485 1485 1485 1483 1484 1483 1484 1484 1484 1484 1484 1484 1484 1484 1484 1484
1304 1310 1316 1322 1326 1326 1328 1335 1341 1343 1343 1343 1344 1344 1345 1346 1350 1354 1358 1361 1366 1370 1376 1381 1385 1390 1395 1399 1405 1412 1417 1424 1429 1429 1431 1436 1437 1435 1437 1440 1444 1449 1454 1459 1463 1465 1471 1483 1497 1508 1509 1505 1504 1505 1506 1507 1506 1504 1503 1502 1503 1502 1499 1501 1505 1507 1512 1513 1513 1520 1517 1495 1481 1483 1483 1482 1483 1482 1483 1483 1482 1483 1482 1482 1483 1483 1483 1483
1305 1311 1316 1323 1328 1328 1324 1325 1332 1340 1343 1342 1343 1345 1345 1346 1348 1352 1355 1359 1362 1366 1372 1377 1380 1384 1389 1394 1399 1405 1410 1419 1426 1427 1428 1433 1434 1433 1434 1437 1440 1445 1448 1450 1454 1459 1467 1479 1491 1503 1510 1510 1509 1507 1504 1505 1507 1504 1502 1502 1501 1500 1501 1502 1502 1505 1508 1506 1507 1515 1511 1489 1479 1480 1480 1480 1481 1480 1481 1482 1482 1482 1481 1481 1482 1481 1482 1482
1305 1312 1316 1322 1329 1331 1328 1324 1324 1330 1336 1337 1340 1343 1343 1345 1347 1348 1352 1357 1360 1362 1368 1374 1377 1380 1386 1392 1397 1402 1404 1410 1419 1425 1427 1429 1431 1432 1433 1434 1436 1439 1442 1445 1448 1453 1462 1472 1478 1486 1497 1501 1501 1497 1493 1498 1505 1504 1500 1499 1498 1498 1500 1499 1502 1507 1507 1503 1504 1505 1495 1483 1479 1479 1478 1479 1480 1479 1479 1480 1481 1480 1480 1480 1480 1480 1481 1481
1298 1307 1314 1324 1332 1333 1330 1328 1328 1332 1335 1336 1340 1342 1341 1344 1347 1348 1351 1356 1359 1361 1366 1371 1375 1381 1387 1392 1398 1404 1405 1407 1413 1419 1422 1425 1428 1431 1431 1432 1434 1436 1440 1443 1446 1451 1460 1468 1468 1467 1472 1477 1479 1480 1481 1488 1497 1498 1495 1496 1497 1498 1499 1498 1502 1504 1501 1503 1505 1494 1483 1481 1481 1480 1478 1477 1477 1479 1479 1478 1478 1478 1478 1479 1479 1479 1480 1481
1294 1297 1301 1311 1326 1335 1335 1333 1332 1332 1333 1334 1337 1338 1338 1342 1346 1349 1351 1354 1356 1359 1365 1371 1373 1378 1385 1388 1395 1402 1405 1407 1411 1415 1420 1424 1427 1430 1431 1433 1434 1436 1438 1441 1444 1449 1457 1465 1466 1463 1466 1469 1469 1473 1478 1481 1486 1489 1491 1495 1496 1497 1499 1499 1498 1494 1494 1501 1498 1483 1480 1483 1481 1479 1478 1475 1475 1478 1478 1477 1477 1478 1479 1479 1478 1479 1480 1481
1291 1294 1293 1292 1299 1311 1320 1323 1324 1326 1327 1329 1332 1335 1338 1341 1343 1347 1350 1352 1354 1356 1362 1370 1372 1372 1377 1381 1388 1399 1405 1409 1412 1414 1419 1423 1427 1429 1432 1435 1436 1436 1438 1441 1444 1446 1452 1460 1464 1465 1470 1470 1467 1472 1476 1477 1480 1485 1488 1491 1493 1495 1496 1494 1491 1486 1487 1490 1481 1474 1480 1481 1475 1476 1476 1473 1475 1476 1475 1476 1477 1478 1479 1479 1479 1479 1479 1480
1288 1292 1296 1296 1295 1297 1302 1307 1316 1323 1324 1325 1329 1332 1336 1339 1340 1343 1346 1349 1353 1354 1356 1365 1369 1369 1373 1376 1383 1394 1400 1403 1409 1412 1415 1419 1422 1425 1430 1435 1437 1437 1438 1441 1445 1446 1449 1458 1464 1465 1469 1471 1470 1473 1475 1475 1479 1484 1486 1487 1488 1489 1488 1483 1480 1479 1482 1482 1474 1475 1482 1475 1466 1472 1473 1471 1474 1474 1474 1477 1477 1477 1478 1478 1478 1478 1478 1479
1291 1292 1295 1300 1303 1305 1309 1314 1321 1326 1326 1326 1329 1330 1331 1335 1337 1341 1342 1344 1349 1352 1353 1358 1364 1368 1373 1375 1379 1385 1387 1388 1396 1404 1410 1416 1420 1422 1426 1430 1434 1437 1439 1442 1446 1446 1449 1457 1462 1463 1469 1473 1472 1476 1479 1479 1479 1482 1485 1486 1483 1481 1480 1477 1476 1479 1485 1484 1477 1479 1484 1471 1461 1466 1469 1469 1472 1473 1475 1477 1476 1476 1477 1476 1476 1477 1477 1477
1293 1294 1295 1299 1304 1307 1312 1318 1322 1325 1327 1327 1328 1328 1329 1332 1334 1338 1342 1342 1344 1348 1351 1355 1362 1369 1374 1376 1378 1380 1382 1384 1389 1394 1398 1403 1410 1413 1417 1423 1428 1434 1439 1442 1444 1445 1449 1458 1462 1464 1470 1473 1472 1479 1483 1479 1479 1482 1480 1477 1475 1475 1476 1477 1477 1479 1481 1479 1478 1483 1481 1468 1461 1464 1466 1467 1471 1473 1474 1474 1474 1474 1475 1474 1475 1475 1476 1476
1295 1296 1296 1300 1306 1309 1311 1317 1322 1324 1322 1320 1322 1324 1325 1329 1332 1334 1341 1346 1346 1347 1351 1356 1363 1370 1375 1377 1376 1377 1381 1385 1389 1393 1396 1398 1403 1408 1411 1417 1421 1426 1433 1438 1442 1444 1447 1453 1460 1463 1468 1474 1478 1479 1476 1477 1484 1481 1464 1458 1467 1474 1475 1477 1476 1474 1472 1472 1477 1478 1469 1460 1462 1464 1463 1466 1471 1472 1471 1471 1471 1472 1472 1473 1474 1474 1475 1475